Weather History for Glasgow, United Kingdom

Change the Weather History Date:

Saturday, June 23, 2012

  Actual Average Record
Temperature  
Mean Temperature 55 °F -  
Max Temperature 59 °F 64 °F 69 °F (2010)
Min Temperature 51 °F 49 °F 46 °F (2008)
Degree Days  
Heating Degree Days 10    
Growing Degree Days 5 (Base 50)    
Moisture  
Dew Point 51 °F    
Average Humidity 88    
Maximum Humidity 100    
Minimum Humidity 72    
Precipitation  
Precipitation 0.00 in - - ()
Sea Level Pressure  
Sea Level Pressure 29.74 in    
Wind  
Wind Speed 11 mph ()    
Max Wind Speed 17 mph    
Max Gust Speed -    
Visibility 6.0 miles    
Events Rain    
Averages and records for this station are not official NWS values.
T = Trace of Precipitation, MM = Missing Value Source: Averaged Metar Reports

Daily Weather History Graph

Daily Weather History Graph

Search for Another Location

Airport:

Trip Planner

Search our weather history database for the weather conditions in past years. The results will help you decide how hot, cold, wet, or windy it might be!

Date:

Astronomy

Jun. 23, 2012 Rise Set
Actual Time 4:32 AM BST 10:07 PM BST
Civil Twilight 3:30 AM BST 11:09 PM BST
Nautical Twilight 1:52 AM BST 12:47 AM BST
Astronomical Twilight Sun does not rise Sun does not rise
Moon 9:04 AM BST (6/23) 11:35 PM BST (6/23)
Length of Visible Light 19h 38m
Length of Day
17h 34m
Waxing Crescent, 14% of the Moon is Illuminated
Jun 23
Waxing Crescent
Jun 27
First Quarter
Jul 3
Full
Jul 11
Last Quarter
Jul 19
New

Hourly Weather History & Observations

Time (BST) Temp. Dew Point Humidity Pressure Visibility Wind Dir Wind Speed Gust Speed Precip Events Conditions
12:20 AM 53.6 °F 53.6 °F 100% 29.59 in 5.0 mi WSW 9.2 mph - N/A Rain Light Rain
12:50 AM 53.6 °F 53.6 °F 100% 29.59 in 6.2 mi West 12.7 mph - N/A Rain Light Rain
1:20 AM 53.6 °F 51.8 °F 94% 29.59 in 6.2 mi WSW 11.5 mph - N/A Rain Rain
1:50 AM 53.6 °F 51.8 °F 94% 29.59 in 6.2 mi West 10.4 mph - N/A   Mostly Cloudy
2:20 AM 53.6 °F 51.8 °F 94% 29.62 in 6.2 mi West 11.5 mph - N/A Rain Light Rain
2:50 AM 53.6 °F 50.0 °F 88% 29.62 in 6.2 mi West 15.0 mph - N/A   Overcast
3:20 AM 51.8 °F 50.0 °F 94% 29.62 in 6.2 mi West 11.5 mph - N/A Rain Light Rain
3:50 AM 53.6 °F 51.8 °F 94% 29.62 in 6.2 mi West 13.8 mph - N/A   Overcast
4:20 AM 53.6 °F 50.0 °F 88% 29.65 in 6.2 mi West 12.7 mph - N/A   Overcast
4:50 AM 51.8 °F 50.0 °F 94% 29.65 in 3.7 mi West 12.7 mph - N/A Rain Light Rain
5:20 AM 53.6 °F 50.0 °F 88% 29.65 in 5.0 mi WSW 13.8 mph - N/A Rain Light Rain
5:50 AM 53.6 °F 51.8 °F 94% 29.65 in 3.7 mi WSW 11.5 mph - N/A Rain Light Rain
6:20 AM 53.6 °F 50.0 °F 88% 29.68 in 6.2 mi WSW 15.0 mph - N/A Rain Light Rain
6:50 AM 53.6 °F 50.0 °F 88% 29.68 in 6.2 mi WSW 15.0 mph - N/A Rain Light Rain
7:20 AM 53.6 °F 50.0 °F 88% 29.68 in 6.2 mi WSW 12.7 mph - N/A Rain Light Rain
7:50 AM 53.6 °F 50.0 °F 88% 29.71 in 6.2 mi WSW 11.5 mph - N/A Rain Light Rain
8:20 AM 53.6 °F 50.0 °F 88% 29.71 in 6.2 mi WSW 13.8 mph - N/A Rain Light Rain
8:50 AM 53.6 °F 50.0 °F 88% 29.71 in 6.2 mi WSW 13.8 mph - N/A Rain Light Rain
9:20 AM 53.6 °F 50.0 °F 88% 29.74 in 5.6 mi WSW 16.1 mph - N/A Rain Light Rain
9:50 AM 53.6 °F 50.0 °F 88% 29.74 in 6.2 mi WSW 15.0 mph - N/A Rain Light Rain
10:20 AM 53.6 °F 50.0 °F 88% 29.74 in 6.2 mi WSW 16.1 mph - N/A   Mostly Cloudy
10:50 AM 53.6 °F 50.0 °F 88% 29.77 in 6.2 mi WSW 17.3 mph - N/A   Mostly Cloudy
11:20 AM 53.6 °F 50.0 °F 88% 29.77 in 6.2 mi WSW 17.3 mph - N/A Rain Light Rain
11:50 AM 53.6 °F 50.0 °F 88% 29.77 in 6.2 mi WSW 17.3 mph - N/A Rain Light Rain
12:20 PM 53.6 °F 50.0 °F 88% 29.80 in 6.2 mi WSW 17.3 mph - N/A Rain Light Rain
12:50 PM 53.6 °F 50.0 °F 88% 29.80 in 6.2 mi WSW 16.1 mph - N/A Rain Light Rain
1:20 PM 53.6 °F 50.0 °F 88% 29.80 in 6.2 mi WSW 15.0 mph - N/A Rain Light Rain
1:50 PM 53.6 °F 50.0 °F 88% 29.80 in 6.2 mi WSW 10.4 mph - N/A Rain Light Rain
2:20 PM 55.4 °F 50.0 °F 82% 29.80 in 6.2 mi WSW 11.5 mph - N/A   Mostly Cloudy
2:50 PM 57.2 °F 51.8 °F 82% 29.80 in 6.2 mi West 12.7 mph - N/A   Scattered Clouds
3:20 PM 57.2 °F 50.0 °F 77% 29.80 in 6.2 mi West 13.8 mph - N/A   Scattered Clouds
3:50 PM 57.2 °F 50.0 °F 77% 29.80 in 6.2 mi West 15.0 mph - N/A   Scattered Clouds
4:20 PM 59.0 °F 50.0 °F 72% 29.80 in 6.2 mi West 15.0 mph - N/A   Mostly Cloudy
4:50 PM 57.2 °F 50.0 °F 77% 29.80 in 6.2 mi West 10.4 mph - N/A   Mostly Cloudy
5:20 PM 57.2 °F 51.8 °F 82% 29.80 in 6.2 mi West 10.4 mph - N/A   Mostly Cloudy
5:50 PM 57.2 °F 50.0 °F 77% 29.80 in 6.2 mi West 16.1 mph - N/A   Scattered Clouds
6:20 PM 59.0 °F 50.0 °F 72% 29.80 in 6.2 mi West 11.5 mph - N/A   Scattered Clouds
6:50 PM 57.2 °F 51.8 °F 82% 29.80 in 6.2 mi West 12.7 mph - N/A   Mostly Cloudy
7:20 PM 55.4 °F 51.8 °F 88% 29.80 in 6.2 mi WSW 11.5 mph - N/A   Mostly Cloudy
7:50 PM 55.4 °F 51.8 °F 88% 29.83 in 6.2 mi WSW 11.5 mph - N/A   Mostly Cloudy
8:20 PM 55.4 °F 51.8 °F 88% 29.83 in 6.2 mi West 6.9 mph - N/A   Scattered Clouds
8:50 PM 55.4 °F 50.0 °F 82% 29.83 in 6.2 mi West 9.2 mph - N/A   Partly Cloudy
9:20 PM 53.6 °F 50.0 °F 88% 29.83 in 6.2 mi WSW 6.9 mph - N/A   Partly Cloudy
9:50 PM 53.6 °F 50.0 °F 88% 29.83 in 6.2 mi SW 8.1 mph - N/A   Scattered Clouds
10:20 PM 53.6 °F 51.8 °F 94% 29.80 in 6.2 mi WSW 8.1 mph - N/A   Overcast
10:50 PM 53.6 °F 51.8 °F 94% 29.80 in 6.2 mi SW 11.5 mph - N/A   Overcast
11:20 PM 53.6 °F 51.8 °F 94% 29.80 in 6.2 mi SW 8.1 mph - N/A   Overcast
11:50 PM 51.8 °F 51.8 °F 100% 29.80 in 6.2 mi WSW 3.5 mph - N/A   Mostly Cloudy